ITY870 LEIB-LIRF

Flight info

Callsign ITY870
Flight time N/A
Altitude 38000
Route MHN N851 ISTER UN851 LUNOR DCT PELOS DCT VALMA
Aircraft A320/M-SDE3FGHIRWY/LB1

Departure

Time 2026-05-08 08:54
Airport Ibiza Airport (LEIB)

Arrival

Time N/A
Airport Rome–Fiumicino Leonardo da Vinci International Airport (LIRF)
Time Latitude Longitude Altitude Speed Heading
2026-05-08 08:11 38.87566 1.36916 9 ft 0 kts 333°
2026-05-08 08:29 38.87565 1.36916 8 ft 0 kts 333°
2026-05-08 08:42 38.87565 1.36917 8 ft 0 kts 333°
2026-05-08 08:43 38.87558 1.36921 9 ft 2 kts 332°
2026-05-08 08:43 38.87547 1.36928 11 ft 1 kts 333°
2026-05-08 08:43 38.87537 1.36935 10 ft 2 kts 333°
2026-05-08 08:43 38.87525 1.36943 11 ft 2 kts 330°
2026-05-08 08:44 38.87514 1.36951 10 ft 1 kts 321°
2026-05-08 08:44 38.87509 1.36955 10 ft 1 kts 298°
2026-05-08 08:44 38.87506 1.36962 11 ft 1 kts 256°
2026-05-08 08:44 38.87507 1.36968 12 ft 1 kts 244°
2026-05-08 08:45 38.87509 1.36975 12 ft 1 kts 243°
2026-05-08 08:45 38.87510 1.36976 12 ft 0 kts 242°
2026-05-08 08:46 38.87490 1.36927 9 ft 10 kts 242°
2026-05-08 08:46 38.87447 1.36824 10 ft 15 kts 241°
2026-05-08 08:47 38.87392 1.36804 8 ft 12 kts 160°
2026-05-08 08:47 38.87325 1.36848 9 ft 9 kts 153°
2026-05-08 08:47 38.87263 1.36810 9 ft 14 kts 240°
2026-05-08 08:47 38.87206 1.36669 9 ft 20 kts 243°
2026-05-08 08:48 38.87150 1.36531 8 ft 13 kts 242°
2026-05-08 08:48 38.87110 1.36436 8 ft 12 kts 242°
2026-05-08 08:48 38.87074 1.36347 9 ft 11 kts 242°
2026-05-08 08:48 38.87039 1.36264 8 ft 10 kts 242°
2026-05-08 08:49 38.87007 1.36186 8 ft 9 kts 242°
2026-05-08 08:49 38.86969 1.36094 8 ft 15 kts 242°
2026-05-08 08:49 38.86919 1.35972 8 ft 15 kts 242°
2026-05-08 08:49 38.86872 1.35859 8 ft 14 kts 242°
2026-05-08 08:50 38.86804 1.35832 9 ft 10 kts 153°
2026-05-08 08:50 38.86792 1.35839 7 ft 0 kts 152°
2026-05-08 08:52 38.86774 1.35852 7 ft 10 kts 152°
2026-05-08 08:52 38.86718 1.35897 6 ft 6 kts 130°
2026-05-08 08:52 38.86716 1.35938 6 ft 4 kts 81°
2026-05-08 08:52 38.86722 1.35953 6 ft 0 kts 60°
2026-05-08 08:53 38.86846 1.36251 6 ft 77 kts 62°
2026-05-08 08:53 38.87198 1.37104 11 ft 136 kts 62°
2026-05-08 08:53 38.87705 1.38293 396 ft 153 kts 63°
2026-05-08 08:54 38.88195 1.39538 1094 ft 160 kts 65°
2026-05-08 08:54 38.88507 1.40970 1645 ft 177 kts 78°
2026-05-08 08:54 38.88777 1.42616 2032 ft 200 kts 76°
2026-05-08 08:54 38.89094 1.44442 2650 ft 213 kts 76°
2026-05-08 08:55 38.89421 1.46295 3579 ft 213 kts 76°
2026-05-08 08:55 38.89753 1.48158 4466 ft 216 kts 76°
2026-05-08 08:55 38.90087 1.50024 5288 ft 219 kts 76°
2026-05-08 08:55 38.90434 1.51954 6119 ft 222 kts 76°
2026-05-08 08:56 38.90751 1.53908 6936 ft 225 kts 84°
2026-05-08 08:56 38.90710 1.55959 7516 ft 241 kts 96°
2026-05-08 08:56 38.90501 1.58199 7924 ft 265 kts 97°
2026-05-08 08:56 38.90266 1.60627 8516 ft 280 kts 98°
2026-05-08 08:57 38.90020 1.63142 9299 ft 289 kts 98°
2026-05-08 08:57 38.89704 1.65719 10095 ft 295 kts 107°
2026-05-08 08:57 38.88973 1.68251 10534 ft 313 kts 116°
2026-05-08 08:57 38.88018 1.70883 10872 ft 335 kts 117°
2026-05-08 08:58 38.87006 1.73654 11417 ft 348 kts 117°
2026-05-08 08:58 38.85964 1.76497 12137 ft 356 kts 117°
2026-05-08 08:58 38.84902 1.79397 12850 ft 362 kts 117°
2026-05-08 08:58 38.83826 1.82348 13574 ft 368 kts 117°
2026-05-08 08:59 38.82733 1.85354 14261 ft 374 kts 117°
2026-05-08 08:59 38.81786 1.88487 14943 ft 380 kts 107°
2026-05-08 08:59 38.81370 1.91814 15618 ft 386 kts 94°
2026-05-08 08:59 38.81527 1.95266 16269 ft 392 kts 81°
2026-05-08 09:00 38.82278 1.98646 16902 ft 398 kts 68°
2026-05-08 09:00 38.83380 2.01930 17543 ft 402 kts 67°
2026-05-08 09:00 38.84499 2.05246 18164 ft 407 kts 67°
2026-05-08 09:00 38.85631 2.08605 18701 ft 413 kts 68°
2026-05-08 09:01 38.86773 2.12007 19211 ft 418 kts 68°
2026-05-08 09:01 38.87932 2.15472 19744 ft 423 kts 68°
2026-05-08 09:01 38.89097 2.18970 20271 ft 429 kts 68°
2026-05-08 09:01 38.90259 2.22464 20791 ft 434 kts 68°
2026-05-08 09:02 38.91447 2.26039 21293 ft 439 kts 68°
2026-05-08 09:02 38.92652 2.29667 21803 ft 444 kts 67°
2026-05-08 09:02 38.93870 2.33333 22315 ft 449 kts 67°
2026-05-08 09:02 38.95102 2.37041 22823 ft 454 kts 67°
2026-05-08 09:03 38.96349 2.40799 23333 ft 459 kts 67°
2026-05-08 09:03 38.97609 2.44594 23776 ft 464 kts 67°
2026-05-08 09:03 38.98881 2.48430 24225 ft 467 kts 67°
2026-05-08 09:03 39.00156 2.52284 24675 ft 470 kts 68°
2026-05-08 09:04 39.01435 2.56166 25131 ft 472 kts 68°
2026-05-08 09:04 39.02717 2.60065 25566 ft 475 kts 68°
2026-05-08 09:04 39.04006 2.63987 25995 ft 477 kts 68°
2026-05-08 09:04 39.05300 2.67923 26391 ft 479 kts 67°
2026-05-08 09:05 39.06598 2.71875 26817 ft 481 kts 67°
2026-05-08 09:05 39.07902 2.75858 27230 ft 483 kts 67°
2026-05-08 09:05 39.09191 2.79799 27654 ft 485 kts 67°
2026-05-08 09:05 39.10496 2.83801 28112 ft 486 kts 67°
2026-05-08 09:06 39.11806 2.87818 28530 ft 487 kts 67°
2026-05-08 09:06 39.13121 2.91850 28914 ft 489 kts 67°
2026-05-08 09:06 39.14635 2.95784 29274 ft 491 kts 59°
2026-05-08 09:06 39.16555 2.99454 29631 ft 492 kts 51°
2026-05-08 09:07 39.18618 3.02990 29994 ft 494 kts 52°
2026-05-08 09:07 39.20691 3.06547 30271 ft 497 kts 51°
2026-05-08 09:07 39.22747 3.10079 30513 ft 500 kts 51°
2026-05-08 09:07 39.24860 3.13721 30775 ft 502 kts 51°
2026-05-08 09:08 39.26960 3.17347 31023 ft 505 kts 52°
2026-05-08 09:08 39.29067 3.20990 31258 ft 507 kts 52°
2026-05-08 09:08 39.31182 3.24649 31517 ft 510 kts 52°
2026-05-08 09:08 39.33281 3.28276 31820 ft 510 kts 52°
2026-05-08 09:09 39.35403 3.31947 32165 ft 510 kts 52°
2026-05-08 09:09 39.37521 3.35622 32492 ft 510 kts 52°
2026-05-08 09:09 39.39635 3.39298 32822 ft 510 kts 52°
2026-05-08 09:09 39.41748 3.42984 33167 ft 510 kts 52°
2026-05-08 09:10 39.43866 3.46680 33511 ft 510 kts 52°
2026-05-08 09:10 39.45983 3.50373 33832 ft 511 kts 52°
2026-05-08 09:10 39.48102 3.54067 34132 ft 511 kts 52°
2026-05-08 09:10 39.50217 3.57760 34406 ft 511 kts 52°
2026-05-08 09:11 39.52337 3.61467 34671 ft 512 kts 52°
2026-05-08 09:11 39.54455 3.65177 34974 ft 511 kts 52°
2026-05-08 09:11 39.56566 3.68882 35240 ft 511 kts 52°
2026-05-08 09:11 39.58675 3.72593 35481 ft 511 kts 52°
2026-05-08 09:12 39.60758 3.76261 35708 ft 512 kts 52°
2026-05-08 09:12 39.62895 3.80030 35945 ft 513 kts 52°
2026-05-08 09:12 39.65011 3.83759 36142 ft 514 kts 51°
2026-05-08 09:12 39.67130 3.87497 36366 ft 514 kts 51°
2026-05-08 09:13 39.69249 3.91238 36569 ft 515 kts 51°
2026-05-08 09:13 39.71372 3.94986 36786 ft 515 kts 51°
2026-05-08 09:13 39.72777 3.97469 36932 ft 515 kts 51°
2026-05-08 09:13 39.75591 4.02450 37274 ft 514 kts 51°
2026-05-08 09:14 39.77706 4.06206 37536 ft 513 kts 51°
2026-05-08 09:14 39.79812 4.09954 37755 ft 513 kts 51°
2026-05-08 09:14 39.81923 4.13712 37961 ft 513 kts 51°
2026-05-08 09:14 39.83318 4.16197 38018 ft 514 kts 51°
2026-05-08 09:15 39.87374 4.23850 38037 ft 515 kts 58°
2026-05-08 09:15 39.90985 4.31912 38024 ft 515 kts 58°
2026-05-08 09:16 39.94591 4.39983 38038 ft 515 kts 58°
2026-05-08 09:16 39.98184 4.48030 38031 ft 512 kts 58°
2026-05-08 09:17 40.01743 4.56015 38032 ft 512 kts 58°
2026-05-08 09:17 40.05325 4.64071 38024 ft 513 kts 57°
2026-05-08 09:18 40.08896 4.72129 38028 ft 513 kts 58°
2026-05-08 09:18 40.12466 4.80202 38034 ft 513 kts 58°
2026-05-08 09:19 40.16031 4.88280 38057 ft 513 kts 58°
2026-05-08 09:19 40.19587 4.96352 38051 ft 512 kts 57°
2026-05-08 09:20 40.23141 5.04429 38050 ft 511 kts 57°
2026-05-08 09:20 40.26648 5.12453 38048 ft 511 kts 57°
2026-05-08 09:21 40.30181 5.20548 38048 ft 511 kts 57°
2026-05-08 09:23 40.41462 5.49652 38055 ft 514 kts 67°
2026-05-08 09:23 40.44042 5.58417 38053 ft 514 kts 67°
2026-05-08 09:24 40.46597 5.67132 38051 ft 515 kts 67°
2026-05-08 09:24 40.49164 5.75921 38045 ft 515 kts 67°
2026-05-08 09:25 40.51740 5.84723 38046 ft 515 kts 67°
2026-05-08 09:25 40.54302 5.93518 38045 ft 515 kts 67°
2026-05-08 09:26 40.56847 6.02276 38045 ft 515 kts 67°
2026-05-08 09:26 40.59393 6.11086 38034 ft 515 kts 67°
2026-05-08 09:27 40.61926 6.19919 38037 ft 516 kts 67°
2026-05-08 09:27 40.64461 6.28759 38036 ft 516 kts 67°
2026-05-08 09:28 40.66998 6.37616 38044 ft 516 kts 67°
2026-05-08 09:28 40.69520 6.46476 38047 ft 516 kts 67°
2026-05-08 09:29 40.72023 6.55285 38055 ft 516 kts 67°
2026-05-08 09:29 40.74527 6.64148 38064 ft 515 kts 67°
2026-05-08 09:30 40.77024 6.73001 38060 ft 514 kts 66°
2026-05-08 09:30 40.79516 6.81859 38056 ft 514 kts 67°
2026-05-08 09:31 40.81994 6.90717 38049 ft 514 kts 66°
2026-05-08 09:31 40.84450 6.99514 38049 ft 513 kts 66°
2026-05-08 09:32 40.86911 7.08361 38047 ft 513 kts 66°
2026-05-08 09:32 40.89368 7.17213 38046 ft 513 kts 67°
2026-05-08 09:33 40.91813 7.26079 38050 ft 512 kts 66°
2026-05-08 09:33 40.94246 7.34912 38042 ft 511 kts 67°
2026-05-08 09:34 40.96668 7.43751 38038 ft 511 kts 67°
2026-05-08 09:34 40.99072 7.52538 38037 ft 511 kts 67°
2026-05-08 09:35 41.01485 7.61388 38032 ft 511 kts 66°
2026-05-08 09:35 41.03886 7.70239 38044 ft 510 kts 66°
2026-05-08 09:36 41.06278 7.79091 38046 ft 510 kts 66°
2026-05-08 09:36 41.08664 7.87945 38075 ft 510 kts 67°
2026-05-08 09:37 41.11043 7.96810 38061 ft 509 kts 67°
2026-05-08 09:37 41.13394 8.05592 38052 ft 508 kts 66°
2026-05-08 09:38 41.15730 8.14424 38054 ft 507 kts 69°
2026-05-08 09:38 41.17258 8.23599 38042 ft 510 kts 77°
2026-05-08 09:39 41.18557 8.32854 38039 ft 510 kts 77°
2026-05-08 09:39 41.19853 8.42099 38036 ft 509 kts 77°
2026-05-08 09:40 41.21152 8.51345 38031 ft 508 kts 77°
2026-05-08 09:40 41.22430 8.60514 38028 ft 508 kts 77°
2026-05-08 09:41 41.23701 8.69753 38050 ft 507 kts 77°
2026-05-08 09:41 41.24962 8.78974 38043 ft 506 kts 77°
2026-05-08 09:42 41.26212 8.88163 38029 ft 505 kts 77°
2026-05-08 09:42 41.27455 8.97353 38020 ft 504 kts 77°
2026-05-08 09:43 41.28683 9.06484 38008 ft 504 kts 77°
2026-05-08 09:43 41.29909 9.15658 38006 ft 504 kts 77°
2026-05-08 09:44 41.31130 9.24838 38000 ft 504 kts 77°
2026-05-08 09:44 41.32343 9.34045 38000 ft 504 kts 77°
2026-05-08 09:45 41.33548 9.43242 38002 ft 505 kts 77°
2026-05-08 09:45 41.34744 9.52383 38000 ft 505 kts 77°
2026-05-08 09:46 41.35938 9.61582 38014 ft 505 kts 77°
2026-05-08 09:46 41.37113 9.70793 38055 ft 504 kts 78°
2026-05-08 09:47 41.38285 9.79999 38042 ft 504 kts 78°
2026-05-08 09:47 41.39453 9.89190 38035 ft 503 kts 78°
2026-05-08 09:48 41.40616 9.98374 38003 ft 504 kts 78°
2026-05-08 09:48 41.41203 10.03036 37729 ft 515 kts 78°
2026-05-08 09:48 41.41797 10.07764 37457 ft 520 kts 78°
2026-05-08 09:48 41.42393 10.12529 37192 ft 521 kts 78°
2026-05-08 09:49 41.42985 10.17287 36924 ft 520 kts 78°
2026-05-08 09:49 41.43563 10.21978 36487 ft 520 kts 78°
2026-05-08 09:49 41.44150 10.26752 35546 ft 523 kts 77°
2026-05-08 09:49 41.44733 10.31528 34733 ft 523 kts 77°
2026-05-08 09:50 41.45310 10.36314 34092 ft 521 kts 77°
2026-05-08 09:50 41.45888 10.41077 33369 ft 519 kts 77°
2026-05-08 09:50 41.46462 10.45802 32733 ft 514 kts 77°
2026-05-08 09:50 41.47032 10.50494 32074 ft 510 kts 78°
2026-05-08 09:51 41.47588 10.55115 31420 ft 502 kts 78°
2026-05-08 09:51 41.48131 10.59668 31032 ft 491 kts 80°
2026-05-08 09:51 41.48660 10.64103 30679 ft 480 kts 80°
2026-05-08 09:51 41.49185 10.68465 30230 ft 471 kts 82°
2026-05-08 09:52 41.49692 10.72667 29873 ft 459 kts 82°
2026-05-08 09:52 41.50189 10.76831 29345 ft 451 kts 82°
2026-05-08 09:52 41.50675 10.80942 28756 ft 446 kts 82°
2026-05-08 09:52 41.51153 10.85009 28160 ft 441 kts 82°
2026-05-08 09:53 41.51628 10.89044 27569 ft 437 kts 82°
2026-05-08 09:53 41.52094 10.93008 26705 ft 429 kts 82°
2026-05-08 09:53 41.52549 10.96911 25880 ft 423 kts 82°
2026-05-08 09:53 41.52999 11.00769 25403 ft 418 kts 82°
2026-05-08 09:54 41.53444 11.04590 24901 ft 415 kts 82°
2026-05-08 09:54 41.53882 11.08383 24378 ft 412 kts 82°
2026-05-08 09:54 41.54317 11.12159 23860 ft 410 kts 82°
2026-05-08 09:54 41.54741 11.15867 23277 ft 409 kts 82°
2026-05-08 09:55 41.55166 11.19597 22806 ft 404 kts 82°
2026-05-08 09:55 41.55586 11.23304 22275 ft 401 kts 82°
2026-05-08 09:55 41.56008 11.26978 21744 ft 398 kts 82°
2026-05-08 09:55 41.56426 11.30612 21215 ft 396 kts 82°
2026-05-08 09:56 41.56839 11.34215 20855 ft 389 kts 83°
2026-05-08 09:56 41.57240 11.37767 20341 ft 386 kts 83°
2026-05-08 09:56 41.57655 11.41287 19674 ft 383 kts 79°
2026-05-08 09:56 41.58444 11.44645 19283 ft 370 kts 70°
2026-05-08 09:57 41.60211 11.50887 18295 ft 354 kts 70°
2026-05-08 09:57 41.61068 11.53942 17826 ft 348 kts 71°
2026-05-08 09:57 41.61915 11.56962 17376 ft 346 kts 71°
2026-05-08 09:58 41.62758 11.59964 16936 ft 344 kts 71°
2026-05-08 09:58 41.63595 11.62945 16508 ft 341 kts 71°
2026-05-08 09:58 41.64406 11.65825 16096 ft 330 kts 71°
2026-05-08 09:58 41.65211 11.68689 15688 ft 329 kts 71°
2026-05-08 09:59 41.66011 11.71548 15274 ft 327 kts 71°
2026-05-08 09:59 41.66804 11.74377 14848 ft 320 kts 71°
2026-05-08 09:59 41.67580 11.77149 14454 ft 317 kts 71°
2026-05-08 09:59 41.68344 11.79889 14047 ft 309 kts 71°
2026-05-08 10:00 41.69086 11.82556 13657 ft 305 kts 71°
2026-05-08 10:00 41.69820 11.85201 13253 ft 298 kts 71°
2026-05-08 10:00 41.70532 11.87769 12895 ft 293 kts 71°
2026-05-08 10:00 41.71240 11.90315 12784 ft 291 kts 71°
2026-05-08 10:01 41.71941 11.92847 12643 ft 291 kts 71°
2026-05-08 10:01 41.72640 11.95380 12487 ft 289 kts 71°
2026-05-08 10:01 41.73331 11.97886 12344 ft 282 kts 71°
2026-05-08 10:01 41.74174 12.00163 12023 ft 269 kts 52°
2026-05-08 10:02 41.75645 12.01647 11742 ft 268 kts 24°
2026-05-08 10:02 41.77478 12.02008 11502 ft 272 kts 355°
2026-05-08 10:02 41.79284 12.01265 11256 ft 274 kts 341°
2026-05-08 10:02 41.81082 12.00416 11014 ft 272 kts 345°
2026-05-08 10:03 41.82885 11.99674 10780 ft 270 kts 346°
2026-05-08 10:03 41.84683 11.98963 10549 ft 268 kts 346°
2026-05-08 10:03 41.86468 11.98257 10309 ft 267 kts 346°
2026-05-08 10:03 41.88220 11.97549 10071 ft 265 kts 345°
2026-05-08 10:04 41.89998 11.96816 9935 ft 264 kts 345°
2026-05-08 10:04 41.91751 11.96086 9805 ft 263 kts 345°
2026-05-08 10:04 41.93475 11.95364 9676 ft 263 kts 345°
2026-05-08 10:04 41.95218 11.94630 9538 ft 262 kts 345°
2026-05-08 10:05 41.96959 11.93892 9402 ft 262 kts 345°
2026-05-08 10:05 41.98692 11.93157 9266 ft 261 kts 344°
2026-05-08 10:05 41.99865 11.92660 9171 ft 261 kts 344°
2026-05-08 10:05 42.02154 11.91687 8990 ft 260 kts 344°
2026-05-08 10:06 42.03878 11.90952 9013 ft 259 kts 344°
2026-05-08 10:06 42.05042 11.90455 9052 ft 260 kts 344°
2026-05-08 10:06 42.06769 11.89718 9056 ft 260 kts 344°
2026-05-08 10:06 42.08434 11.89007 9048 ft 251 kts 344°
2026-05-08 10:07 42.10093 11.88301 9044 ft 250 kts 344°
2026-05-08 10:07 42.11755 11.87590 8963 ft 250 kts 344°
2026-05-08 10:07 42.13405 11.86883 8528 ft 251 kts 344°
2026-05-08 10:07 42.15087 11.86165 8015 ft 256 kts 343°
2026-05-08 10:08 42.16800 11.85432 7506 ft 260 kts 343°
2026-05-08 10:08 42.18536 11.84688 7009 ft 263 kts 343°
2026-05-08 10:08 42.20290 11.83937 6500 ft 266 kts 342°
2026-05-08 10:08 42.22074 11.83287 6089 ft 264 kts 354°
2026-05-08 10:09 42.23840 11.83463 6021 ft 245 kts 17°
2026-05-08 10:09 42.25271 11.84431 6030 ft 220 kts 37°
2026-05-08 10:09 42.26263 11.85897 6033 ft 207 kts 57°
2026-05-08 10:09 42.26818 11.87655 6034 ft 203 kts 77°
2026-05-08 10:10 42.27020 11.89544 6044 ft 203 kts 81°
2026-05-08 10:10 42.27192 11.91440 6042 ft 203 kts 82°
2026-05-08 10:10 42.27362 11.93335 6039 ft 203 kts 82°
2026-05-08 10:10 42.27383 11.95233 6032 ft 203 kts 102°
2026-05-08 10:11 42.26787 11.96935 6066 ft 196 kts 129°
2026-05-08 10:11 42.25774 11.98029 6051 ft 180 kts 155°
2026-05-08 10:11 42.24644 11.98553 6033 ft 164 kts 163°
2026-05-08 10:11 42.23583 11.99005 6025 ft 158 kts 162°
2026-05-08 10:12 42.22539 11.99452 6025 ft 157 kts 162°
2026-05-08 10:12 42.21496 11.99898 6033 ft 157 kts 162°
2026-05-08 10:12 42.20466 12.00335 6035 ft 157 kts 162°
2026-05-08 10:12 42.19413 12.00783 6038 ft 157 kts 162°
2026-05-08 10:13 42.18373 12.01229 6111 ft 157 kts 162°
2026-05-08 10:13 42.17335 12.01675 6118 ft 156 kts 162°
2026-05-08 10:13 42.16316 12.02110 6125 ft 155 kts 162°
2026-05-08 10:13 42.15286 12.02551 6128 ft 156 kts 162°
2026-05-08 10:14 42.14246 12.02996 6112 ft 158 kts 162°
2026-05-08 10:14 42.13174 12.03454 5769 ft 166 kts 163°
2026-05-08 10:14 42.12079 12.04070 5339 ft 175 kts 150°
2026-05-08 10:14 42.11091 12.05094 4891 ft 183 kts 137°
2026-05-08 10:15 42.10216 12.06376 4436 ft 187 kts 134°
2026-05-08 10:15 42.09342 12.07660 4109 ft 183 kts 135°
2026-05-08 10:15 42.08494 12.08904 3852 ft 177 kts 134°
2026-05-08 10:15 42.07671 12.10110 3604 ft 172 kts 137°
2026-05-08 10:16 42.06869 12.11283 3362 ft 168 kts 139°
2026-05-08 10:16 42.06089 12.12425 3139 ft 163 kts 137°
2026-05-08 10:16 42.05354 12.13506 3059 ft 149 kts 139°
2026-05-08 10:16 42.04683 12.14496 3020 ft 140 kts 139°
2026-05-08 10:17 42.04033 12.15450 2988 ft 137 kts 138°
2026-05-08 10:17 42.03385 12.16396 2953 ft 137 kts 140°